Regional Weather Roundup
Issued by NWS Jackson, KY

Home | Current Version | Previous Version | Text Only | Print | Product List | Glossary Off
Versions: 1 2 3 4 5 6 7 8 9 10 11 12 13 14 15 16 17 18 19 20 21 22 23 24 25 26 27 28 29 30 31 32 33 34 35 36 37 38 39 40 41 42 43 44 45 46 47 48 49 50

000
ASUS43 KJKL 220505
RWRJKL

EAST KENTUCKY HOURLY WEATHER ROUNDUP
NATIONAL WEATHER SERVICE JACKSON KY
1200 AM EST MON DEC 22 2014

NOTE: "FAIR" INDICATES FEW OR NO CLOUDS BELOW 12,000 FEET WITH
NO SIGNIFICANT WEATHER AND/OR OBSTRUCTIONS TO VISIBILITY.

* THESE REPORTS ARE NOT UNDER NWS QUALITY CONTROL AND MAY NOT
  REPORT WEATHER SUCH AS PRECIPITATION AND FOG.

KYZ079-080-083-085-087-088-110-112-115-119-120-220600
...EASTERN KENTUCKY...

CITY           SKY/WX    TMP DP  RH WIND       PRES   REMARKS
JACKSON        CLOUDY    37  26  64 E5        30.10F WCI  33
LONDON         CLOUDY    42  29  59 CALM      30.08F
SOMERSET*      CLOUDY    37  28  70 CALM      30.08F
MONTICELLO*    CLOUDY    39  33  79 CALM      30.09F
MIDDLESBORO*   CLOUDY    38  35  89 CALM      30.11S
HARLAN APT*    CLOUDY    34  32  93 E9        30.10F WCI  26
BLACK MTN*       N/A     30  30 100 E1          N/A
PIKEVILLE APT* PTCLDY    34  27  75 CALM      30.11S
BIG SANDY*     CLOUDY    35  28  76 CALM      30.12F
MOREHEAD APT*  PTCLDY    34  27  75 VRB5      30.12F WCI  30
$$

KYZ035-036-041-042-044-050-067-078-099-220600
...CENTRAL KENTUCKY...

CITY           SKY/WX    TMP DP  RH WIND       PRES   REMARKS
MT STERLING*   PTCLDY    32  28  86 SE6       30.12S WCI  26
FLEMING/MASON* CLEAR     27  25  89 E7        30.12F WCI  20
DANVILLE*      CLOUDY    32  28  86 CALM      30.08F
RICHMOND*      CLOUDY    36  28  75 E7        30.08F WCI  30
LEXINGTON      PTCLDY    34  27  75 E8        30.08F WCI  27
FRANKFORT      CLEAR     29  24  82 E6        30.07F WCI  23
$$

KYZ091>093-OHZ055-061-077-WVZ005-015-034-035-042-220600
...SOUTHERN OHIO/WEST VIRGINIA...

CITY           SKY/WX    TMP DP  RH WIND       PRES   REMARKS
COVINGTON      PTCLDY    29  22  75 E6        30.10F WCI  23
COLUMBUS       MOCLDY    28  22  78 E6        30.14F WCI  22
DAYTON         PTCLDY    27  23  85 E7        30.12F WCI  19
WILMINGTON     CLEAR     27  23  85 E7        30.11F WCI  19
HUNTINGTON     MOCLDY    31  28  89 CALM      30.13S
CHARLESTON     PTCLDY    29  25  85 CALM      30.13S
PINEVILLE*     CLEAR     30  30 100 MISG      30.18R
BECKLEY        CLEAR     36  30  79 SE13G23   30.11S WCI  27
BLUEFIELD      MOCLDY    38  31  76 VRB7G21   30.12S WCI  33
$$

VAZ002-007-008-TNZ017-027-036-066-071-220600
...SOUTHWEST VIRGINIA/EAST TENNESSEE...

CITY           SKY/WX    TMP DP  RH WIND       PRES   REMARKS
WISE*          PTCLDY    37  32  81 S7        30.09F WCI  32
JONESVILLE*    PTCLDY    28  28 100 CALM      30.12F
ABINGDON*      CLOUDY    39  34  82 E7        30.11F WCI  34
BRISTOL        MOCLDY    36  33  89 CALM      30.12S
KNOXVILLE      CLOUDY    43  37  79 CALM      30.08F
OAK RIDGE      CLOUDY    45  37  73 CALM      30.10F
CROSSVILLE     CLOUDY    45  36  70 CALM      30.06F
NASHVILLE      CLEAR     44  38  79 SE7       30.03F
$$

...KEY TO REMARKS...
VSB - VISIBILITY IN MILES
WCI - WIND CHILL INDEX
HX  - HEAT INDEX

$$



USA.gov is the U.S. government's official web portal to all federal, state and local government web resources and services.